GOES 10 1 24786U 97019A 10073.25910935 .00000045 00000-0 10000-3 0 3647 2 24786 4.1926 69.7571 0003898 19.3423 32.7823 0.99071201 47203 SARSAT 7 (NOAA 15) 1 25338U 98030A 10074.26437835 .00000121 00000-0 70386-4 0 3032 2 25338 98.6115 62.9044 0010537 354.1900 5.9145 14.24812454615377 GOES 11 1 26352U 00022A 10074.10974147 .00000088 00000-0 10000-3 0 7489 2 26352 0.1923 85.8587 0001312 242.7052 107.8727 1.00272911 36122 SARSAT 8 (NOAA 16) 1 26536U 00055A 10074.23129918 .00000312 00000-0 19402-3 0 7813 2 26536 99.1756 89.4640 0009899 238.2310 121.7918 14.12551102488568 GPS BIIR-07 (DASS) 1 26690U 01004A 10073.65012127 .00000002 00000-0 10000-3 0 6389 2 26690 53.7632 268.5609 0111393 226.2774 132.8052 2.00563369 66855 GOES 12 1 26871U 01031A 10074.23900603 -.00000254 00000-0 00000+0 0 4855 2 26871 0.3234 86.7632 0003081 314.1294 143.3227 1.00278577 31728 SARSAT 9 (NOAA 17) 1 27453U 02032A 10074.48383674 .00000088 00000-0 56271-4 0 7857 2 27453 98.4431 128.6515 0012520 54.4760 305.7596 14.24139082401369 MSG-1 1 27509U 02040B 10074.07908637 .00000059 00000-0 10000-3 0 4680 2 27509 0.5200 28.9347 0001363 207.7045 333.5852 1.00272379 27710 GPS BIIR-08 (DASS) 1 27663U 03005A 10074.00200965 .00000039 00000-0 10000-3 0 184 2 27663 55.6508 88.6706 0059934 342.7899 17.0636 2.00558171 52214 INSAT 3A 1 27714U 03013A 10074.72003528 -.00000259 00000-0 10000-3 0 416 2 27714 0.0013 207.6123 0004235 211.4701 106.8126 1.00271467 25423 GPS BIIR-11 (DASS) 1 28190U 04009A 10073.14497821 .00000011 00000-0 10000-3 0 4722 2 28190 54.8748 151.6280 0062540 348.0688 11.8366 2.00559923 43866 GPS BIIR-12 (DASS) 1 28361U 04023A 10073.43458201 -.00000069 00000-0 10000-3 0 2956 2 28361 55.4931 327.6482 0064303 176.4795 183.6356 2.00558535 41950 GPS BIIR-13 (DASS) 1 28474U 04045A 10074.43108920 -.00000004 00000-0 10000-3 0 1774 2 28474 53.8689 206.2823 0093180 171.8799 188.2309 2.00550366 39338 SARSAT 10 (NOAA 18) 1 28654U 05018A 10074.29555613 -.00000151 00000-0 -58527-4 0 2709 2 28654 98.9405 20.8723 0013888 321.8219 38.1979 14.11335433248197 GPS IIR-14M (DASS) 1 28874U 05038A 10074.28316536 .00000028 00000-0 10000-3 0 4406 2 28874 55.0112 148.4159 0053039 214.7158 145.0004 2.00575466 32751 MSG-2 1 28912U 05049B 10073.98329904 -.00000006 00000-0 00000+0 0 6291 2 28912 0.2190 75.5545 0000180 260.4670 190.4045 1.00278156 15561 GOES 13 1 29155U 06018A 10074.12450008 -.00000174 00000-0 99999-4 0 183 2 29155 0.3812 265.9524 0002343 228.8512 347.8490 1.00404637 13971 SARSAT 11 (METOP-A) 1 29499U 06044A 10073.68284284 .00000020 00000-0 29206-4 0 581 2 29499 98.6837 134.7747 0000747 106.5719 253.5528 14.21499618176443 GPS IIR-16M (DASS) 1 29601U 06052A 10074.33611375 .00000038 00000-0 10000-3 0 8110 2 29601 55.5777 87.6589 0035937 326.2584 33.5902 2.00556546 24366 GPS IIR-17M (DASS) 1 32260U 07047A 10073.63718403 -.00000068 00000-0 00000+0 0 5433 2 32260 54.6824 326.2644 0024318 339.0468 20.9050 2.00557107 17744 GPS IIR-18M (DASS) 1 32384U 07062A 10073.46290595 .00000019 00000-0 10000-3 0 5705 2 32384 55.0257 148.9190 0031722 282.8170 76.9006 2.00550110 16460 SARSAT 12 (NOAA 19) 1 33591U 09005A 10074.33408247 .00000176 00000-0 12171-3 0 4699 2 33591 98.7801 18.4888 0013938 191.5547 168.5325 14.11033244 56676 COSPAS C11 (STERKH 1) 1 35636U 09039B 10074.50545050 .00000138 00000-0 10000-3 0 2247 2 35636 82.9549 206.7818 0019289 321.6803 38.2989 13.89446974 32959 COSPAS C12 (STERKH 2) 1 35866U 09049B 10073.70633164 .00000178 00000-0 10000-3 0 1656 2 35866 98.7714 128.2850 0002513 282.4163 77.6693 14.22310445 25303